QPF
0.02 0.04 0.04 0.04 0.04 0.05 0.06 0.09 0.15 0.13 0.09 0.10 0.10 0.09 0.06 0.07 0.10 0.09 0.05 0.04 0.04 0.03 0.04 0.04 0.04 0.03 0.04 0.05 0.07 0.11 0.15 0.15 0.13 0.11 0.10 0.11 0.12 0.13
0.02 0.03 0.05 0.05 0.04 0.04 0.05 0.06 0.09 0.11 0.10 0.11 0.09 0.09 0.08 0.08 0.11 0.11 0.07 0.07 0.06 0.04 0.03 0.03 0.04 0.04 0.05 0.04 0.04 0.06 0.08 0.10 0.10 0.08 0.06 0.06 0.08 0.09
0.03 0.04 0.04 0.04 0.03 0.04 0.04 0.07 0.10 0.11 0.08 0.09 0.07 0.08 0.14 0.17 0.13 0.11 0.10 0.11 0.11 0.06 0.03 0.03 0.03 0.04 0.04 0.03 0.03 0.03 0.05 0.08 0.08 0.07 0.06 0.06 0.07 0.08
0.05 0.04 0.04 0.04 0.03 0.03 0.04 0.06 0.08 0.07 0.07 0.08 0.09 0.09 0.10 0.15 0.14 0.10 0.08 0.08 0.07 0.05 0.04 0.04 0.04 0.04 0.03 0.04 0.03 0.03 0.03 0.05 0.06 0.04 0.04 0.05 0.06 0.08
0.05 0.04 0.04 0.04 0.03 0.03 0.03 0.04 0.05 0.06 0.07 0.08 0.07 0.08 0.07 0.05 0.05 0.05 0.04 0.03 0.03 0.03 0.03 0.04 0.03 0.04 0.03 0.03 0.02 0.03 0.03 0.04 0.05 0.04 0.05 0.06 0.05 0.05
0.05 0.04 0.03 0.03 0.03 0.03 0.04 0.04 0.04 0.04 0.06 0.07 0.06 0.06 0.05 0.03 0.03 0.03 0.02 0.01 0.01 0.01 0.01 0.01 0.02 0.02 0.02 0.02 0.02 0.01 0.01 0.02 0.03 0.04 0.04 0.03 0.02 0.02
0.06 0.05 0.05 0.06 0.05 0.04 0.03 0.04 0.04 0.03 0.04 0.05 0.05 0.04 0.04 0.03 0.03 0.03 0.03 0.02 0.02 0.01 0.01 0.01 0.00 0.00 0.01 0.01 0.02 0.02 0.01 0.01 0.01 0.01 0.01 0.01 0.02 0.02
0.07 0.06 0.05 0.05 0.06 0.05 0.05 0.04 0.04 0.03 0.03 0.03 0.04 0.04 0.05 0.05 0.07 0.07 0.06 0.04 0.03 0.02 0.02 0.01 0.00 0.00 0.00 0.00 0.01 0.01 0.01 0.02 0.02 0.01 0.01 0.01 0.01 0.01
0.06 0.07 0.05 0.05 0.06 0.06 0.05 0.04 0.03 0.04 0.04 0.04 0.04 0.04 0.05 0.07 0.06 0.04 0.04 0.03 0.02 0.02 0.02 0.01 0.01 0.01 0.01 0.02 0.02 0.02 0.02 0.02 0.02 0.02 0.02 0.02 0.01 0.01
0.05 0.06 0.05 0.04 0.05 0.05 0.05 0.04 0.04 0.05 0.05 0.05 0.04 0.03 0.03 0.03 0.03 0.03 0.04 0.03 0.03 0.04 0.04 0.04 0.03 0.03 0.02 0.03 0.02 0.02 0.01 0.01 0.01 0.02 0.02 0.03 0.04 0.03
0.04 0.05 0.05 0.04 0.04 0.04 0.05 0.05 0.05 0.05 0.04 0.03 0.02 0.02 0.02 0.02 0.02 0.03 0.04 0.04 0.04 0.05 0.05 0.05 0.04 0.03 0.02 0.01 0.01 0.01 0.02 0.02 0.02 0.02 0.02 0.03 0.04 0.05
0.05 0.04 0.04 0.03 0.03 0.04 0.04 0.03 0.02 0.02 0.02 0.02 0.02 0.02 0.02 0.02 0.02 0.02 0.02 0.03 0.03 0.03 0.03 0.03 0.03 0.02 0.02 0.01 0.01 0.01 0.01 0.02 0.02 0.02 0.02 0.02 0.02 0.02
0.06 0.04 0.03 0.03 0.03 0.04 0.02 0.02 0.02 0.02 0.02 0.02 0.02 0.02 0.02 0.02 0.01 0.01 0.01 0.02 0.03 0.03 0.03 0.02 0.02 0.01 0.01 0.01 0.01 0.01 0.01 0.01 0.01 0.01 0.01 0.01 0.02 0.02
0.02 0.02 0.02 0.02 0.03 0.03 0.03 0.04 0.04 0.04 0.03 0.03 0.03 0.03 0.02 0.01 0.01 0.01 0.01 0.02 0.03 0.02 0.01 0.01 0.01 0.01 0.01 0.01 0.00 0.00 0.01 0.01 0.01 0.01 0.01 0.01 0.01 0.01
0.02 0.02 0.02 0.02 0.02 0.02 0.02 0.03 0.03 0.03 0.03 0.04 0.04 0.03 0.03 0.02 0.01 0.01 0.01 0.01 0.02 0.02 0.01 0.01 0.01 0.01 0.00 0.01 0.01 0.00 0.00 0.00 0.00 0.01 0.01 0.00 0.00 0.00
0.02 0.01 0.01 0.01 0.01 0.01 0.01 0.01 0.01 0.02 0.03 0.03 0.03 0.04 0.06 0.05 0.03 0.02 0.03 0.03 0.04 0.04 0.03 0.01 0.01 0.01 0.01 0.00 0.00 0.00 0.01 0.01 0.01 0.01 0.01 0.01 0.01 0.01
0.03 0.02 0.02 0.01 0.01 0.01 0.00 0.01 0.01 0.02 0.03 0.04 0.04 0.04 0.06 0.08 0.08 0.07 0.06 0.05 0.03 0.02 0.02 0.01 0.01 0.01 0.01 0.01 0.01 0.01 0.01 0.01 0.01 0.01 0.01 0.01 0.01 0.01
0.03 0.03 0.02 0.02 0.01 0.01 0.01 0.01 0.01 0.02 0.03 0.04 0.05 0.05 0.06 0.06 0.06 0.05 0.05 0.04 0.03 0.02 0.01 0.01 0.01 0.01 0.01 0.01 0.01 0.01 0.01 0.01 0.01 0.01 0.01 0.01 0.01 0.01
0.03 0.02 0.02 0.02 0.01 0.01 0.01 0.01 0.02 0.02 0.02 0.03 0.03 0.03 0.04 0.04 0.04 0.04 0.04 0.03 0.02 0.02 0.01 0.01 0.01 0.02 0.02 0.02 0.01 0.01 0.01 0.01 0.00 0.00 0.01 0.01 0.01 0.01
0.02 0.01 0.01 0.01 0.01 0.01 0.02 0.02 0.02 0.02 0.02 0.03 0.03 0.03 0.03 0.03 0.03 0.03 0.02 0.02 0.02 0.01 0.01 0.01 0.01 0.01 0.01 0.01 0.01 0.01 0.01 0.01 0.01 0.01 0.01 0.01 0.01 0.01
0.01 0.01 0.01 0.02 0.02 0.02 0.02 0.02 0.02 0.02 0.03 0.03 0.02 0.02 0.02 0.02 0.02 0.02 0.02 0.02 0.02 0.02 0.02 0.02 0.01 0.01 0.01 0.01 0.01 0.00 0.01 0.00 0.00 0.00 0.00 0.00 0.00 0.01
0.01 0.02 0.02 0.02 0.02 0.02 0.02 0.02 0.02 0.02 0.02 0.02 0.02 0.02 0.02 0.01 0.01 0.01 0.01 0.01 0.01 0.02 0.02 0.02 0.02 0.02 0.01 0.01 0.01 0.01 0.00 0.01 0.01 0.01 0.01 0.00 0.00 0.00
0.03 0.03 0.03 0.02 0.02 0.02 0.02 0.02 0.03 0.03 0.03 0.02 0.01 0.01 0.01 0.01 0.01 0.01 0.01 0.01 0.01 0.01 0.01 0.01 0.02 0.02 0.02 0.02 0.01 0.01 0.01 0.02 0.02 0.02 0.02 0.01 0.01 0.01
MSLP
1016.99 1017.23 1017.50 1017.79 1018.03 1018.20 1018.25 1018.18 1017.99 1017.69 1017.31 1016.89 1016.43 1015.98 1015.54 1015.13 1014.76 1014.43 1014.16 1013.97 1013.87 1013.86 1013.93 1014.08 1014.28 1014.49 1014.69 1014.86 1014.99 1015.07 1015.13 1015.19 1015.28 1015.41 1015.58 1015.81 1016.07 1016.32
1016.41 1016.62 1016.86 1017.12 1017.36 1017.53 1017.62 1017.62 1017.51 1017.30 1017.01 1016.66 1016.26 1015.83 1015.38 1014.93 1014.49 1014.07 1013.72 1013.43 1013.24 1013.15 1013.17 1013.26 1013.42 1013.60 1013.78 1013.93 1014.04 1014.11 1014.16 1014.22 1014.31 1014.44 1014.62 1014.86 1015.12 1015.38
1015.82 1015.99 1016.19 1016.41 1016.62 1016.80 1016.92 1016.96 1016.93 1016.82 1016.64 1016.39 1016.08 1015.71 1015.29 1014.84 1014.37 1013.91 1013.49 1013.13 1012.86 1012.69 1012.63 1012.66 1012.76 1012.89 1013.02 1013.13 1013.21 1013.25 1013.28 1013.32 1013.40 1013.53 1013.71 1013.94 1014.19 1014.44
1015.24 1015.36 1015.51 1015.68 1015.85 1016.01 1016.14 1016.23 1016.28 1016.27 1016.20 1016.07 1015.87 1015.59 1015.25 1014.84 1014.39 1013.92 1013.46 1013.06 1012.73 1012.49 1012.36 1012.31 1012.33 1012.38 1012.44 1012.49 1012.50 1012.50 1012.49 1012.50 1012.55 1012.65 1012.82 1013.03 1013.27 1013.50
1014.67 1014.74 1014.83 1014.94 1015.06 1015.19 1015.32 1015.45 1015.56 1015.64 1015.69 1015.68 1015.60 1015.45 1015.20 1014.88 1014.49 1014.05 1013.60 1013.18 1012.81 1012.52 1012.31 1012.18 1012.11 1012.07 1012.03 1011.98 1011.92 1011.84 1011.77 1011.72 1011.73 1011.81 1011.95 1012.14 1012.36 1012.57
1014.12 1014.14 1014.17 1014.22 1014.29 1014.39 1014.51 1014.65 1014.81 1014.97 1015.11 1015.22 1015.27 1015.24 1015.12 1014.90 1014.60 1014.22 1013.82 1013.41 1013.02 1012.69 1012.42 1012.21 1012.04 1011.89 1011.74 1011.59 1011.42 1011.25 1011.10 1010.99 1010.95 1010.98 1011.09 1011.26 1011.46 1011.66
1013.58 1013.56 1013.54 1013.54 1013.57 1013.64 1013.75 1013.89 1014.08 1014.29 1014.51 1014.72 1014.88 1014.96 1014.96 1014.85 1014.65 1014.36 1014.01 1013.64 1013.26 1012.91 1012.59 1012.30 1012.04 1011.78 1011.53 1011.26 1010.98 1010.71 1010.48 1010.30 1010.20 1010.19 1010.27 1010.42 1010.61 1010.80
1013.06 1013.01 1012.97 1012.95 1012.95 1012.99 1013.08 1013.22 1013.42 1013.66 1013.92 1014.19 1014.42 1014.60 1014.69 1014.68 1014.57 1014.37 1014.09 1013.77 1013.42 1013.06 1012.71 1012.38 1012.04 1011.69 1011.34 1010.97 1010.60 1010.24 1009.93 1009.68 1009.53 1009.48 1009.54 1009.67 1009.85 1010.04
1012.55 1012.52 1012.48 1012.46 1012.45 1012.49 1012.56 1012.69 1012.88 1013.11 1013.38 1013.66 1013.93 1014.15 1014.30 1014.36 1014.33 1014.20 1014.00 1013.73 1013.42 1013.09 1012.73 1012.37 1011.99 1011.59 1011.16 1010.72 1010.27 1009.85 1009.48 1009.18 1008.99 1008.91 1008.93 1009.06 1009.23 1009.42
1012.08 1012.10 1012.10 1012.11 1012.13 1012.16 1012.23 1012.34 1012.49 1012.69 1012.93 1013.18 1013.44 1013.66 1013.82 1013.92 1013.93 1013.86 1013.71 1013.50 1013.24 1012.94 1012.61 1012.25 1011.86 1011.44 1010.99 1010.51 1010.03 1009.57 1009.16 1008.83 1008.61 1008.50 1008.50 1008.61 1008.77 1008.95
1011.67 1011.76 1011.84 1011.91 1011.97 1012.02 1012.08 1012.17 1012.28 1012.42 1012.59 1012.79 1012.98 1013.16 1013.30 1013.39 1013.41 1013.37 1013.27 1013.11 1012.90 1012.65 1012.36 1012.04 1011.68 1011.28 1010.84 1010.37 1009.88 1009.42 1008.99 1008.65 1008.40 1008.26 1008.24 1008.31 1008.45 1008.61
1011.32 1011.51 1011.69 1011.84 1011.95 1012.03 1012.10 1012.16 1012.22 1012.29 1012.38 1012.49 1012.60 1012.71 1012.79 1012.85 1012.86 1012.82 1012.74 1012.62 1012.46 1012.26 1012.03 1011.77 1011.46 1011.10 1010.70 1010.27 1009.81 1009.36 1008.95 1008.59 1008.32 1008.16 1008.09 1008.12 1008.22 1008.34
1011.03 1011.34 1011.62 1011.85 1012.02 1012.14 1012.22 1012.25 1012.26 1012.27 1012.28 1012.29 1012.32 1012.34 1012.35 1012.35 1012.33 1012.29 1012.21 1012.11 1011.99 1011.85 1011.67 1011.46 1011.21 1010.92 1010.58 1010.20 1009.78 1009.36 1008.96 1008.61 1008.32 1008.11 1008.00 1007.97 1007.99 1008.05
1010.78 1011.19 1011.56 1011.87 1012.11 1012.27 1012.35 1012.37 1012.34 1012.29 1012.23 1012.17 1012.11 1012.06 1012.02 1011.96 1011.91 1011.84 1011.76 1011.67 1011.57 1011.45 1011.32 1011.16 1010.97 1010.73 1010.44 1010.11 1009.74 1009.35 1008.97 1008.60 1008.29 1008.04 1007.87 1007.76 1007.72 1007.70
1010.53 1011.03 1011.47 1011.84 1012.12 1012.30 1012.40 1012.41 1012.37 1012.29 1012.18 1012.08 1011.97 1011.87 1011.78 1011.70 1011.61 1011.52 1011.43 1011.33 1011.23 1011.13 1011.01 1010.88 1010.71 1010.51 1010.27 1009.97 1009.63 1009.27 1008.89 1008.52 1008.17 1007.88 1007.64 1007.46 1007.34 1007.26
1010.25 1010.79 1011.27 1011.67 1011.98 1012.18 1012.28 1012.30 1012.26 1012.17 1012.07 1011.96 1011.85 1011.74 1011.64 1011.54 1011.44 1011.34 1011.23 1011.12 1011.00 1010.89 1010.76 1010.62 1010.46 1010.26 1010.03 1009.75 1009.43 1009.07 1008.69 1008.30 1007.93 1007.59 1007.30 1007.06 1006.87 1006.72
1009.89 1010.44 1010.92 1011.32 1011.62 1011.83 1011.94 1011.97 1011.96 1011.90 1011.84 1011.76 1011.69 1011.62 1011.55 1011.47 1011.38 1011.27 1011.15 1011.02 1010.88 1010.73 1010.57 1010.39 1010.21 1009.99 1009.74 1009.46 1009.13 1008.77 1008.38 1007.98 1007.59 1007.21 1006.88 1006.59 1006.35 1006.16
1009.44 1009.95 1010.40 1010.77 1011.05 1011.24 1011.36 1011.42 1011.45 1011.45 1011.46 1011.46 1011.47 1011.47 1011.46 1011.44 1011.38 1011.29 1011.17 1011.02 1010.84 1010.65 1010.43 1010.21 1009.98 1009.72 1009.44 1009.13 1008.78 1008.41 1008.01 1007.59 1007.18 1006.79 1006.42 1006.10 1005.84 1005.62
1008.92 1009.36 1009.75 1010.06 1010.29 1010.47 1010.59 1010.69 1010.77 1010.86 1010.95 1011.06 1011.18 1011.28 1011.37 1011.41 1011.41 1011.35 1011.24 1011.08 1010.87 1010.63 1010.37 1010.09 1009.80 1009.49 1009.17 1008.83 1008.46 1008.06 1007.65 1007.22 1006.80 1006.39 1006.01 1005.67 1005.39 1005.16
1008.34 1008.71 1009.01 1009.25 1009.44 1009.59 1009.72 1009.86 1010.00 1010.18 1010.38 1010.61 1010.84 1011.06 1011.25 1011.38 1011.44 1011.42 1011.33 1011.16 1010.93 1010.66 1010.35 1010.03 1009.69 1009.34 1008.98 1008.60 1008.21 1007.80 1007.37 1006.93 1006.49 1006.07 1005.67 1005.32 1005.02 1004.78
1007.76 1008.04 1008.26 1008.44 1008.59 1008.72 1008.87 1009.04 1009.26 1009.52 1009.83 1010.17 1010.51 1010.84 1011.12 1011.33 1011.46 1011.48 1011.41 1011.25 1011.01 1010.72 1010.38 1010.03 1009.65 1009.27 1008.88 1008.48 1008.06 1007.63 1007.18 1006.72 1006.27 1005.82 1005.40 1005.03 1004.70 1004.44
1007.21 1007.42 1007.58 1007.72 1007.84 1007.97 1008.14 1008.36 1008.64 1008.99 1009.38 1009.82 1010.25 1010.66 1011.02 1011.29 1011.46 1011.52 1011.47 1011.31 1011.07 1010.77 1010.42 1010.05 1009.66 1009.25 1008.85 1008.42 1007.99 1007.54 1007.07 1006.59 1006.10 1005.62 1005.17 1004.75 1004.38 1004.09
1006.73 1006.90 1007.03 1007.15 1007.27 1007.43 1007.63 1007.90 1008.24 1008.65 1009.12 1009.61 1010.11 1010.56 1010.95 1011.25 1011.44 1011.51 1011.46 1011.31 1011.07 1010.77 1010.42 1010.04 1009.64 1009.23 1008.81 1008.38 1007.93 1007.46 1006.96 1006.44 1005.92 1005.40 1004.89 1004.42 1004.01 1003.66
Thickness
5740 5739 5736 5735 5734 5732 5728 5724 5716 5707 5704 5706 5705 5705 5703 5701 5699 5698 5695 5694 5692 5691 5689 5688 5687 5686 5685 5684 5683 5682 5682 5681 5681 5680 5679 5677 5676 5674
5737 5735 5733 5732 5730 5729 5726 5724 5720 5713 5705 5704 5702 5702 5700 5697 5694 5692 5689 5687 5685 5684 5682 5681 5680 5679 5677 5676 5675 5674 5673 5673 5672 5671 5671 5669 5668 5667
5732 5731 5728 5728 5726 5724 5723 5720 5716 5712 5704 5700 5699 5697 5694 5691 5688 5686 5683 5680 5678 5677 5676 5674 5672 5670 5669 5668 5666 5665 5665 5664 5663 5662 5661 5659 5658 5658
5727 5725 5723 5722 5720 5718 5717 5714 5711 5709 5703 5696 5693 5690 5688 5686 5683 5679 5676 5674 5672 5670 5668 5666 5664 5662 5660 5659 5658 5657 5656 5655 5654 5652 5651 5649 5648 5647
5723 5720 5718 5716 5714 5712 5711 5708 5706 5704 5700 5694 5689 5686 5683 5680 5675 5672 5670 5667 5665 5662 5660 5657 5655 5653 5651 5650 5649 5648 5647 5646 5644 5642 5641 5639 5638 5636
5719 5716 5713 5711 5709 5707 5705 5702 5700 5696 5693 5688 5683 5679 5676 5673 5669 5664 5660 5658 5657 5655 5652 5650 5647 5645 5643 5642 5640 5639 5638 5636 5634 5632 5631 5629 5627 5626
5713 5711 5709 5707 5706 5704 5701 5697 5695 5690 5686 5681 5677 5672 5669 5665 5661 5659 5654 5651 5648 5647 5643 5642 5639 5637 5635 5633 5631 5630 5628 5626 5624 5622 5620 5619 5617 5615
5706 5705 5703 5701 5699 5698 5695 5693 5690 5685 5680 5676 5671 5667 5665 5662 5658 5655 5649 5644 5639 5638 5635 5633 5632 5629 5627 5625 5623 5621 5619 5617 5615 5612 5610 5608 5607 5605
5700 5699 5698 5696 5693 5690 5688 5686 5683 5680 5678 5673 5667 5664 5661 5659 5654 5649 5644 5640 5636 5634 5630 5625 5624 5621 5620 5618 5615 5613 5610 5608 5605 5603 5601 5599 5597 5595
5695 5693 5690 5688 5687 5684 5680 5677 5674 5672 5670 5667 5664 5661 5658 5655 5651 5647 5641 5635 5632 5628 5625 5618 5616 5614 5613 5610 5608 5605 5602 5600 5597 5594 5592 5589 5587 5585
5689 5687 5684 5681 5680 5678 5673 5669 5666 5664 5662 5660 5657 5655 5652 5649 5646 5640 5633 5627 5621 5619 5617 5612 5608 5605 5604 5602 5600 5597 5594 5591 5589 5586 5583 5580 5578 5575
5681 5679 5677 5675 5672 5670 5666 5662 5658 5655 5653 5651 5648 5646 5643 5640 5637 5633 5628 5621 5615 5611 5610 5606 5601 5598 5593 5592 5591 5588 5585 5583 5580 5577 5574 5572 5569 5566
5674 5671 5669 5667 5664 5662 5659 5655 5652 5649 5645 5642 5638 5635 5632 5630 5627 5624 5621 5616 5610 5605 5604 5600 5595 5590 5586 5582 5580 5579 5576 5573 5571 5568 5565 5563 5560 5557
5668 5664 5662 5659 5656 5654 5651 5648 5645 5641 5637 5632 5628 5624 5621 5619 5617 5615 5612 5609 5606 5601 5597 5593 5588 5583 5577 5572 5569 5568 5566 5564 5561 5558 5556 5554 5551 5548
5661 5658 5655 5651 5648 5646 5643 5640 5636 5632 5628 5623 5619 5615 5613 5611 5608 5605 5602 5599 5596 5593 5589 5585 5581 5576 5570 5565 5561 5557 5555 5554 5552 5550 5547 5545 5542 5539
5653 5650 5646 5643 5640 5637 5634 5631 5627 5623 5619 5614 5610 5607 5605 5601 5598 5595 5591 5588 5584 5581 5579 5576 5572 5567 5561 5557 5553 5549 5547 5544 5543 5541 5539 5536 5534 5532
5644 5640 5636 5632 5628 5625 5623 5620 5617 5614 5610 5606 5602 5598 5595 5591 5588 5585 5581 5577 5572 5568 5566 5565 5562 5558 5554 5549 5544 5541 5539 5537 5535 5533 5530 5527 5526 5524
5636 5630 5626 5623 5620 5616 5613 5610 5608 5604 5601 5597 5593 5589 5585 5581 5577 5574 5570 5566 5562 5558 5556 5553 5550 5546 5543 5541 5539 5534 5532 5529 5528 5525 5522 5518 5517 5517
5628 5623 5619 5616 5612 5609 5605 5602 5599 5596 5592 5588 5584 5580 5576 5572 5568 5564 5560 5556 5553 5550 5547 5544 5541 5536 5532 5530 5530 5530 5526 5523 5520 5517 5514 5512 5510 5510
5620 5616 5612 5609 5605 5601 5598 5594 5591 5588 5584 5580 5576 5571 5567 5563 5559 5555 5551 5548 5544 5541 5538 5536 5533 5530 5527 5524 5523 5522 5522 5517 5513 5510 5507 5505 5504 5503
5612 5608 5605 5601 5597 5594 5590 5587 5583 5579 5575 5571 5567 5562 5558 5554 5550 5546 5543 5540 5536 5532 5529 5528 5527 5526 5522 5518 5514 5514 5514 5513 5510 5505 5502 5497 5495 5493
5604 5601 5597 5594 5590 5586 5582 5578 5575 5570 5566 5562 5558 5553 5549 5545 5541 5537 5534 5530 5527 5524 5523 5521 5520 5517 5513 5509 5506 5505 5505 5505 5503 5501 5498 5495 5490 5487
5597 5593 5589 5586 5582 5578 5574 5570 5565 5560 5556 5552 5548 5544 5540 5536 5533 5529 5526 5523 5520 5517 5515 5513 5511 5508 5505 5502 5499 5497 5497 5496 5494 5492 5491 5490 5488 5486